Flag Weather past 2 weeks in Brandon, Manitoba, Canada

Now
9 °F

Light snow. Overcast.


Feels Like: -6 °F
Forecast: -8 / 9 °F
Wind: 12 mph from Northeast

Location: Brandon

Current Time: Nov 29, 2014 at 3:06:41 AM

Latest Report: Nov 29, 2014 at 2:00 AM


Visibility: 1 mi

Pressure: 29.60 "Hg

Humidity: 78%

Dew point: 3 °F

Location of BrandonLocation

Historic Weather in Brandon — Graph

°F

Brandon temperature yesterday

Maximum temperature yesterday: 9 °F (at 12:00 AM)
Minimum temperature yesterday: 7 °F (at 5:00 AM)
Average temperature yesterday: 7 °F

Past Weeks' High & Low Weather Summary

 TemperatureHumidityPressure
High45 °F (Nov 21, 2:00 PM)100% (Nov 22, 4:00 AM)30.64 "Hg (Nov 22, 4:00 AM)
Low-18 °F (Nov 27, 6:00 AM)38% (Nov 19, 3:00 PM)29.32 "Hg (Nov 22, 11:00 PM)
Average11 °F75%30.03 "Hg
* Reported Nov 14 1:00 AM — Nov 29 1:00 AM, Brandon, Weather by CustomWeather, © 2014

Note: Actual official high and low records may vary slightly from our data, if they occured in-between our weather recording intervals... More about our weather records

Advertising

Brandon weather history for previous 24 hours

 ConditionsComfort  
Time TempWeatherWind HumidityBarometerVisibility
1:00 AM
Nov 29
7 °FLight snow. Overcast.13 mph85%29.61 "Hg3 mi
12:00 AM9 °FLight snow. Overcast.15 mph85%29.62 "Hg4 mi
11:00 PM
Nov 28
7 °FLight snow. Overcast.13 mph85%29.65 "Hg10 mi
10:00 PM7 °FOvercast.14 mph85%29.67 "Hg10 mi
9:00 PM7 °FLight snow. Overcast.14 mph85%29.71 "Hg2 mi
8:00 PM7 °FLight snow. Overcast.15 mph85%29.72 "Hg10 mi
7:00 PM7 °FLight snow. Low clouds.18 mph85%29.74 "Hg2 mi
6:00 PM7 °FLight snow. Overcast.17 mph85%29.78 "Hg2 mi
5:00 PM7 °FLight snow. Low clouds.17 mph85%29.78 "Hg4 mi
4:00 PM7 °FSnow. Mostly cloudy.17 mph85%29.80 "Hg1 mi
3:00 PM7 °FLight snow. More clouds than sun.17 mph85%29.84 "Hg2 mi
2:00 PM7 °FLight snow. Mostly cloudy.17 mph85%29.88 "Hg1 mi
1:00 PM7 °FLight snow. Low clouds.17 mph85%29.92 "Hg1 mi
12:00 PM7 °FLight snow. More clouds than sun.18 mph78%29.96 "Hg1 mi
11:48 AM7 °FLight snow. Cloudy.22 mph78%29.95 "Hg1 mi
11:00 AM7 °FLight snow. Low clouds.22 mph78%29.98 "Hg3 mi
10:00 AM7 °FLight snow. Overcast.18 mph78%30.01 "Hg5 mi
9:00 AM7 °FLight snow. Overcast.23 mph78%30.02 "Hg6 mi
8:00 AM7 °FLight snow. Overcast.18 mph85%30.06 "Hg4 mi
7:00 AM7 °FLight snow. Mostly cloudy.20 mph85%30.06 "Hg5 mi
6:00 AM7 °FLight snow. Mostly cloudy.15 mph85%30.09 "Hg1 mi
5:00 AM7 °FLight snow. Overcast.18 mph85%30.09 "Hg3 mi
4:00 AM9 °FLight snow. Overcast.16 mph85%30.09 "Hg3 mi
3:00 AM9 °FLight snow. Overcast.12 mph85%30.11 "Hg1 mi
Weather by CustomWeather, © 2014

See weather overviewHow to use our weather pages